This is the latest recevied weather packets stored in our database for station/object KD7ECD. If no packets are shown the sender has not sent any weather packets the latest 10 day(s).
| Time | Temp. | Humidity | Pressure | Rain* | Wind** | Luminosity | Snow |
|---|---|---|---|---|---|---|---|
| 1777819298 | 11.67° C | 89% | 1014.7 hPa | 0 mm | - | 77 W/m² | - |
| 1777818697 | 11.67° C | 89% | 1014.8 hPa | 0 mm | - | 61 W/m² | - |
| 1777818096 | 11.11° C | 90% | 1014.5 hPa | 0 mm | - | 55 W/m² | - |
| 1777817496 | 11.11° C | 90% | 1014.1 hPa | 0 mm | - | 35 W/m² | - |
| 1777816895 | 11.11° C | 90% | 1014.4 hPa | 0 mm | - | 19 W/m² | - |
| 1777816294 | 11.11° C | 91% | 1014.1 hPa | 0 mm | - | 10 W/m² | - |
| 1777815689 | 11.11° C | 91% | 1014 hPa | 0 mm | - | 8 W/m² | - |
| 1777815089 | 11.11° C | 91% | 1013.9 hPa | 0 mm | - | 4 W/m² | - |
| 1777814488 | 11.11° C | 91% | 1013.5 hPa | 0 mm | - | 2 W/m² | - |
| 1777813888 | 11.11° C | 90% | 1013.5 hPa | 0 mm | - | 0 W/m² | - |
| 1777813283 | 11.11° C | 90% | 1013.4 hPa | 0 mm | - | 0 W/m² | - |
| 1777812678 | 11.11° C | 89% | 1013.5 hPa | 0 mm | - | 0 W/m² | - |
| 1777812073 | 11.11° C | 89% | 1013.3 hPa | 0 mm | - | 0 W/m² | - |
| 1777811473 | 11.11° C | 89% | 1013.3 hPa | 0 mm | - | 0 W/m² | - |
| 1777810873 | 11.11° C | 89% | 1013.7 hPa | 0 mm | - | 0 W/m² | - |
| 1777810272 | 11.11° C | 89% | 1013.2 hPa | 0 mm | - | 0 W/m² | - |
| 1777809672 | 11.11° C | 89% | 1013.4 hPa | 0 mm | - | 0 W/m² | - |
| 1777809066 | 11.11° C | 89% | 1013.3 hPa | 0 mm | - | 0 W/m² | - |
| 1777808466 | 11.11° C | 89% | 1013.5 hPa | 0 mm | - | 0 W/m² | - |
| 1777807862 | 11.11° C | 89% | 1013.4 hPa | 0 mm | - | 0 W/m² | - |
| 1777807262 | 11.11° C | 89% | 1013.3 hPa | 0 mm | - | 0 W/m² | - |
| 1777806661 | 11.11° C | 89% | 1013.5 hPa | 0 mm | - | 0 W/m² | - |
| 1777806060 | 11.11° C | 89% | 1013.7 hPa | 0 mm | - | 0 W/m² | - |
| 1777805460 | 11.11° C | 89% | 1013.5 hPa | 0 mm | - | 0 W/m² | - |
| 1777804855 | 11.11° C | 89% | 1013.5 hPa | 0 mm | - | 0 W/m² | - |
* Rain latest hour (hover to see other rain measurements)
** Current wind speed in m/s (hover to see current wind gust speed)